This demonstration page uses our WeatherBlox Daily Observations layout. Learn more.

38.88101, -77.10428

Hourly Observations for January 16, 2017

Temp ( °F °C ) Dew Point ( °F °C ) Humidity (%) Winds ( mph kmh ) Pressure ( in mb ) Visibility ( mi km ) Precip ( " mm )
12:52 am 00:52 Cloudy 41 5 27 -2.8 57 57 Calm 30.44 1031 10 16.0934 0 0
1:52 am 01:52 Cloudy 40 4.4 31 -0.6 70 70 NE 7 11 30.45 1031 10 16.0934 0 0
2:52 am 02:52 Cloudy 39 3.9 29 -1.7 67 67 ENE 7 11 30.45 1031 10 16.0934 0 0
3:52 am 03:52 Cloudy 39 3.9 27 -2.8 62 62 ENE 3 6 30.45 1031 10 16.0934 0 0
4:52 am 04:52 Cloudy 39 3.9 27 -2.8 62 62 E 6 9 30.45 1031 10 16.0934 0 0
5:52 am 05:52 Cloudy 38 3.3 26 -3.3 62 62 ESE 5 7 30.46 1031 10 16.0934 0 0
6:52 am 06:52 Cloudy 38 3.3 27 -2.8 65 65 Calm 30.47 1032 10 16.0934 0 0
7:29 am 07:29 Cloudy 38 3.3 28 -2.2 68 68 Calm 30.48 1032 10 16.0934 0 0
7:52 am 07:52 Cloudy 38 3.3 28 -2.2 68 68 Calm 30.48 1032 10 16.0934 0 0
8:30 am 08:30 Cloudy 39 4 28 -2 65 65 ENE 5 7 30.48 1032 10 16.0934 0 0
8:52 am 08:52 Cloudy 39 3.9 29 -1.7 67 67 NE 3 6 30.48 1032 10 16.0934 0 0
9:52 am 09:52 Cloudy 40 4.4 28 -2.2 63 63 SE 3 6 30.49 1033 10 16.0934 0 0
10:52 am 10:52 Cloudy 42 5.6 29 -1.7 60 60 SSW 5 7 30.49 1033 10 16.0934 0 0
11:52 am 11:52 Cloudy 42 5.6 29 -1.7 60 60 S 9 15 30.45 1031 10 16.0934 0 0
12:52 pm 12:52 Cloudy 43 6.1 31 -0.6 63 63 S 8 13 30.42 1030 10 16.0934 0 0
1:52 pm 13:52 Cloudy 44 6.7 32 0 63 63 S 8 13 30.39 1029 10 16.0934 0 0
2:52 pm 14:52 Cloudy 45 7.2 31 -0.6 58 58 S 7 11 30.38 1029 10 16.0934 0 0
2:59 pm 14:59 Cloudy 45 7.2 31 -0.6 58 58 S 7 11 30.39 1029 10 16.0934 0 0
3:23 pm 15:23 Cloudy 45 7.2 31 -0.6 58 58 S 8 13 30.39 1029 10 16.0934 0 0
3:52 pm 15:52 Cloudy 46 7.8 29 -1.7 51 51 S 9 15 30.38 1029 10 16.0934 0 0
4:52 pm 16:52 Cloudy 45 7.2 31 -0.6 58 58 S 9 15 30.38 1029 10 16.0934 0 0
5:10 pm 17:10 Cloudy 45 7 34 1 66 66 S 7 11 30.39 1029 10 16.0934 0 0
5:52 pm 17:52 Cloudy 44 6.7 32 0 63 63 S 6 9 30.37 1028 10 16.0934 0 0
6:52 pm 18:52 Cloudy 43 6.1 33 0.6 68 68 S 7 11 30.36 1028 10 16.0934 0 0
7:52 pm 19:52 Cloudy 43 6.1 34 1.1 71 71 S 5 7 30.36 1028 10 16.0934 0 0
8:52 pm 20:52 Cloudy 43 6.1 33 0.6 68 68 S 7 11 30.35 1028 10 16.0934 0 0
9:52 pm 21:52 Cloudy 43 6.1 34 1.1 71 71 S 7 11 30.34 1028 10 16.0934 0 0
10:52 pm 22:52 Cloudy with Light Rain 42 5.6 35 1.7 76 76 S 7 11 30.33 1027 10 16.0934 0 0.0254
11:06 pm 23:06 Cloudy with Light Rain 42 5.6 36 2.2 79 79 S 6 9 30.33 1027 9 14.48406 0 0.0254
11:16 pm 23:16 Cloudy with Light Rain 41 5 37 3 87 87 S 7 11 30.33 1027 10 16.0934 0 0
11:23 pm 23:23 Cloudy with Light Rain 41 5 37 2.8 86 86 S 6 9 30.33 1027 10 16.0934 0 0.0254
11:52 pm 23:52 Cloudy with Light Rain 41 5 38 3.3 89 89 S 6 9 30.3 1026 10 16.0934 0.01 0.254

Powered by AerisWeather